Wind_Speed
68 68 68 67 67 67 67 67 68 69 70 71 73 75 76 77 79 81 82 83 83 82 81 80 80 80 80 80 79 79 79 80 80 80 81 81 81 81 82 82 82 82 83 83 83 84 84 84 84 84 84 83 82 82 81 81 80 79 78 78 78 78 79 80 80 78 76 74 71 69 69 69 69 68 69 69 68 67 67 67 68 68 67 66 66
74 75 76 75 75 75 75 75 76 76 75 74 74 75 77 79 81 83 85 88 88 88 88 86 85 84 83 82 82 81 81 81 82 83 84 84 84 84 84 84 83 83 82 82 83 83 84 84 84 84 84 84 83 82 82 82 82 81 80 79 79 78 79 80 80 80 79 78 76 73 71 71 70 70 70 70 70 69 69 69 70 70 69 69 68
80 80 80 80 81 82 82 82 83 83 83 83 82 82 83 85 85 86 86 87 87 87 87 88 89 90 89 88 86 85 84 85 85 86 87 88 88 88 87 87 86 85 84 83 82 82 82 83 84 85 85 85 84 83 83 83 83 83 82 81 80 79 79 80 80 80 80 80 79 76 74 73 72 72 72 72 72 72 71 71 71 71 71 70 69
85 86 86 87 88 88 87 88 88 89 90 90 91 91 91 91 91 91 92 91 91 90 89 90 91 93 94 93 91 89 90 91 92 92 91 92 92 92 92 90 89 88 87 86 85 84 83 82 83 84 85 85 84 84 85 85 84 84 84 83 82 80 80 81 80 80 80 80 80 79 77 76 74 74 75 75 75 75 73 73 72 72 72 71 71
90 91 93 94 93 91 90 90 91 92 93 94 95 96 96 97 97 97 98 98 98 98 97 96 96 96 97 97 97 96 96 97 97 98 97 96 96 97 97 96 94 92 90 89 88 88 87 85 85 85 85 85 85 85 85 86 86 86 85 85 85 83 82 82 81 81 81 81 81 81 80 79 77 76 76 77 77 76 75 74 74 73 73 73 72
94 94 95 95 94 93 93 93 93 93 94 95 96 97 98 99 100 100 101 101 101 101 100 100 100 100 100 102 103 104 103 101 100 101 102 102 101 101 101 101 100 99 97 95 93 92 91 91 90 90 89 88 88 88 87 87 87 87 86 86 86 85 83 82 82 82 82 81 81 81 81 80 79 79 78 78 78 78 77 76 76 76 76 74 73
95 96 96 95 96 96 96 96 96 97 97 98 99 99 100 101 102 102 103 103 103 103 103 103 103 103 103 104 106 107 107 106 104 104 104 105 106 106 106 105 105 105 103 102 100 98 97 96 95 95 94 93 92 92 91 90 89 88 87 87 86 86 84 83 83 83 82 82 81 81 81 80 80 80 80 80 81 80 80 79 79 79 78 76 73
98 98 99 100 100 100 101 101 102 102 102 102 103 103 104 104 105 105 105 106 106 106 106 107 106 106 106 106 107 108 108 109 108 108 108 108 108 109 110 109 109 109 109 108 106 104 102 100 98 98 97 97 97 96 95 94 93 91 89 88 87 86 84 83 84 84 83 83 82 82 82 81 81 81 81 82 83 82 81 80 79 78 77 75 73
101 102 102 103 104 105 105 106 106 107 107 107 107 108 108 108 108 109 109 109 110 110 110 109 109 109 108 108 108 108 109 109 109 110 111 111 111 112 113 113 113 113 113 113 112 111 109 107 104 101 100 100 100 100 99 98 98 96 94 92 91 89 86 84 83 84 84 84 84 84 84 83 82 81 81 82 82 81 81 80 79 78 77 77 76
102 102 103 103 103 104 104 105 105 106 106 107 107 108 109 109 110 110 111 111 112 112 113 113 113 112 112 111 111 110 109 109 108 109 110 110 111 112 113 114 115 116 117 117 116 115 114 113 110 107 105 103 102 102 102 102 102 101 100 98 96 95 92 88 85 83 83 84 85 85 86 85 83 82 82 81 82 83 83 82 81 80 80 80 79
100 100 99 99 99 99 99 99 99 99 100 101 102 103 103 104 105 106 107 108 109 110 111 112 113 113 114 114 114 113 112 111 110 110 110 110 110 111 112 113 114 115 116 117 117 116 115 114 113 112 110 107 104 103 103 104 105 105 104 103 102 100 98 96 91 87 84 84 84 86 87 85 84 84 84 83 83 84 85 85 84 84 83 82 81
93 93 92 92 92 91 91 91 91 92 92 93 94 95 96 97 98 98 99 100 101 102 104 105 107 108 110 111 112 112 113 113 112 112 112 112 112 112 113 114 114 114 115 115 115 115 115 114 113 112 112 111 109 106 104 103 103 104 105 106 106 104 101 100 98 94 90 86 84 85 86 85 84 85 86 86 85 84 85 86 87 86 86 85 83
84 84 84 84 84 84 84 84 85 85 86 87 88 89 90 90 91 92 92 93 94 94 95 96 97 99 101 103 105 106 107 108 108 109 111 112 112 113 114 115 115 115 116 116 116 115 115 115 114 112 111 110 110 109 106 104 103 103 103 105 106 105 104 102 102 100 97 93 89 85 84 84 85 86 87 87 88 87 87 87 87 88 88 88 86
78 78 78 78 78 79 79 79 80 80 81 82 83 84 85 85 86 87 88 88 89 89 89 90 90 91 92 94 96 97 98 99 100 102 104 106 108 110 112 114 115 115 116 116 116 117 116 116 116 115 113 111 110 109 108 107 105 104 104 103 103 103 103 103 103 103 101 99 95 90 85 83 85 86 88 89 89 89 89 88 89 90 90 88 87
73 73 73 74 75 75 76 76 77 78 79 80 80 81 82 82 83 84 85 86 86 86 86 86 86 86 87 88 89 90 90 90 92 94 97 99 101 104 107 109 111 112 113 114 115 116 116 117 117 117 116 114 113 111 110 109 109 108 106 105 104 103 102 102 103 104 104 103 100 96 91 87 85 85 88 90 89 89 89 90 91 92 92 91 90
70 70 71 72 73 74 75 76 77 78 79 80 80 81 82 82 83 83 84 84 84 84 84 84 84 83 83 84 85 85 84 84 86 89 91 93 96 99 101 103 105 107 107 108 109 110 112 114 115 116 116 116 115 114 113 112 112 112 110 109 107 105 104 102 102 103 105 105 104 100 96 94 91 88 87 89 90 90 90 91 93 95 95 95 94
68 69 70 72 73 75 76 78 78 79 80 80 81 81 81 81 81 82 82 81 80 80 80 80 80 80 81 81 82 82 81 80 82 85 87 89 92 94 96 98 99 100 101 101 102 103 104 106 108 111 113 114 114 114 114 114 114 114 114 113 111 110 107 104 103 103 104 106 106 104 100 98 97 94 90 88 88 89 91 91 92 94 97 98 97
68 70 72 74 75 77 78 78 78 78 78 78 79 79 79 79 79 79 79 78 78 77 78 77 76 77 78 78 79 80 78 77 80 82 83 85 88 91 93 94 95 95 95 96 96 97 97 98 100 102 105 107 108 110 112 113 114 114 114 114 114 113 111 107 106 106 106 106 106 106 104 101 101 101 98 93 89 88 89 90 89 91 96 99 99
71 72 73 75 76 76 76 76 76 77 77 77 78 78 78 78 78 77 77 76 75 75 74 74 72 72 73 73 73 73 72 71 72 74 75 77 81 85 87 90 91 92 93 93 93 93 92 92 92 94 96 98 100 102 104 107 109 110 111 112 113 114 112 110 109 109 109 108 107 107 107 105 103 102 103 101 96 92 89 87 87 89 92 95 98
71 72 72 73 74 74 75 75 76 77 77 77 77 77 76 75 74 73 72 71 70 68 67 65 63 62 61 60 59 60 60 60 61 63 65 67 70 74 77 79 82 84 86 89 90 90 90 89 89 88 89 91 92 95 97 99 102 104 106 108 109 110 110 110 110 110 110 109 109 108 108 107 106 104 103 104 103 99 94 89 88 88 89 89 92
69 70 71 71 72 73 74 75 75 75 74 74 73 73 72 71 68 66 63 61 58 56 54 52 51 49 49 50 51 53 55 56 58 60 62 64 67 69 71 73 75 77 78 80 82 83 85 86 86 86 87 88 88 90 92 94 96 99 101 103 104 104 104 106 108 110 110 110 110 109 108 108 108 107 105 104 104 104 101 97 93 91 89 87 88
68 69 70 71 72 72 73 72 72 71 70 70 69 68 66 63 60 57 55 51 48 47 45 45 44 43 44 47 49 51 54 56 59 61 64 66 69 71 73 74 75 77 77 76 77 78 79 80 81 82 84 86 87 88 89 91 93 95 97 97 98 98 99 101 104 107 108 109 110 109 108 107 107 107 107 105 104 104 103 102 100 98 94 90 88
67 69 69 70 70 70 69 68 67 66 65 64 63 62 59 56 53 52 50 46 44 43 42 42 42 42 44 46 49 52 55 58 60 63 66 68 71 73 75 76 77 79 79 77 77 77 77 76 76 77 78 80 82 84 87 89 91 93 94 94 94 94 95 96 100 103 105 107 108 109 108 107 106 106 106 105 104 102 102 103 102 102 101 98 94
67 68 68 67 67 66 65 63 62 60 59 58 58 58 56 52 50 48 45 44 43 42 42 42 43 43 45 47 50 53 57 59 62 64 65 67 70 72 74 75 76 78 78 77 77 77 77 76 75 75 76 77 77 78 81 86 89 91 92 93 93 93 94 95 96 99 101 103 105 106 107 106 105 104 104 103 102 101 101 102 102 102 102 102 101
66 65 65 64 63 62 60 58 55 53 53 54 55 55 53 50 48 45 43 42 42 42 43 44 44 45 46 48 50 53 57 59 59 59 60 62 65 68 70 71 72 73 74 73 74 74 74 74 73 74 75 76 76 76 76 79 84 88 90 92 93 93 94 95 95 95 97 98 101 102 103 103 103 102 101 101 102 101 100 101 102 103 102 102 102
63 62 62 61 60 57 54 51 49 48 48 49 50 50 50 48 46 45 43 43 43 44 44 45 45 45 46 47 49 52 55 55 53 52 53 55 58 61 65 68 69 69 68 67 68 70 71 71 70 70 71 72 74 75 74 73 76 81 87 90 92 94 94 95 94 94 93 93 95 96 97 98 99 100 100 100 100 100 100 99 100 101 101 101 100
61 60 59 57 55 52 49 46 44 43 44 44 44 45 46 45 44 43 43 43 43 43 44 44 44 45 45 46 48 50 50 48 46 47 49 52 53 56 59 63 65 67 66 64 63 63 65 67 68 67 66 67 69 71 71 69 69 73 79 85 90 92 93 94 94 93 92 90 90 91 92 93 95 97 98 99 98 97 97 98 98 98 99 99 99
58 57 56 54 50 47 44 42 41 41 41 42 42 43 42 41 39 40 40 40 40 41 41 42 43 44 45 45 46 47 46 45 45 46 49 51 53 54 56 57 58 60 61 62 62 59 59 61 64 64 62 62 63 65 66 65 65 66 70 75 82 88 91 93 94 94 92 89 88 88 88 90 91 92 94 95 95 94 94 94 95 96 97 97 97
56 55 53 49 46 43 41 40 40 40 40 40 41 42 42 40 37 36 37 38 38 38 39 40 41 43 44 45 46 46 45 45 46 48 50 52 54 56 56 55 54 53 54 56 58 58 56 56 58 59 59 57 58 59 60 61 62 62 63 67 72 79 85 90 92 93 92 90 88 87 87 88 88 88 89 90 91 92 91 91 92 93 94 95 95
54 52 49 45 42 40 39 39 39 39 39 38 38 39 41 42 40 38 37 39 40 39 39 39 41 42 43 45 47 47 47 47 48 49 51 53 56 57 58 56 53 51 50 50 52 54 54 53 53 54 55 54 53 54 55 56 57 57 58 59 63 68 74 81 86 89 90 90 89 88 87 87 87 87 87 87 87 88 89 89 89 90 91 92 92
52 48 45 42 40 39 38 39 39 38 37 37 37 38 39 41 42 42 41 41 42 42 42 42 42 43 44 45 46 48 49 49 50 51 52 54 56 57 58 57 54 50 48 48 47 48 49 49 49 50 51 50 48 49 50 52 53 52 52 54 56 60 65 71 77 82 86 88 89 88 87 87 87 86 86 85 85 86 86 86 87 87 88 90 90
50 45 41 39 38 38 38 38 37 37 36 37 38 39 39 39 40 42 43 44 44 44 44 45 45 45 46 46 47 48 48 49 49 50 51 53 55 56 57 56 53 49 46 45 44 44 44 44 44 45 47 46 44 45 47 48 50 49 49 49 51 54 58 63 68 73 79 83 86 87 87 86 86 86 85 85 84 84 84 84 84 85 86 89 89
47 42 39 37 37 38 38 37 36 36 36 37 38 40 40 40 39 40 42 44 45 47 47 47 47 47 47 47 48 48 48 48 48 48 49 51 53 55 55 55 53 49 44 42 40 39 39 39 39 40 42 42 42 43 44 46 46 46 45 45 46 48 52 56 60 65 71 75 79 82 83 84 84 85 85 84 84 83 82 82 82 82 84 87 89
46 41 37 36 36 37 36 35 35 36 36 38 39 40 41 41 41 41 41 42 44 46 48 50 50 50 49 49 49 49 48 48 46 46 46 48 50 52 53 53 52 48 43 40 38 36 35 35 35 36 37 39 40 41 42 44 44 43 42 41 42 44 46 49 53 58 62 67 71 74 77 79 81 82 83 83 83 82 81 80 80 80 81 84 86
44 39 36 35 36 36 35 35 35 36 37 38 40 41 41 41 41 41 41 42 42 44 46 48 50 51 51 50 49 49 48 47 46 45 44 45 47 49 50 51 50 46 42 38 36 34 32 31 31 32 32 34 37 39 41 42 42 41 40 40 40 41 42 44 47 51 55 59 63 66 70 73 76 78 80 81 81 81 80 79 78 78 79 81 83
42 37 34 34 35 34 34 35 36 36 37 38 40 41 42 42 42 42 42 43 43 44 45 46 48 49 50 50 50 49 49 47 45 43 42 42 44 46 48 49 49 45 40 36 33 32 30 29 28 28 29 30 33 36 38 40 41 41 41 41 41 41 42 43 45 48 51 54 57 61 64 67 70 74 77 78 79 79 79 78 77 76 77 79 81
41 34 32 33 34 33 34 35 36 36 37 39 41 42 43 43 43 43 43 44 44 45 45 46 46 47 48 49 48 48 48 47 45 43 41 40 41 43 46 48 48 44 39 33 30 29 29 28 27 26 26 27 29 31 33 36 39 41 41 42 42 42 43 44 46 48 50 52 55 58 61 63 66 70 73 75 76 76 76 76 75 75 76 78 80
39 33 32 32 32 32 33 34 35 36 37 39 41 43 43 43 44 44 44 45 45 46 46 47 47 46 46 46 46 46 45 44 43 41 39 38 39 40 43 46 46 43 38 32 28 27 27 27 26 26 25 25 26 28 30 33 37 39 41 42 44 44 44 44 45 46 48 51 53 55 57 59 62 65 68 71 72 73 74 74 74 74 75 77 79
38 33 31 32 32 32 33 34 35 36 37 40 42 43 43 43 44 44 45 46 47 47 48 48 48 48 47 46 45 44 42 40 39 38 36 35 35 37 40 42 43 41 36 32 28 26 25 24 25 25 26 27 27 28 30 33 36 38 41 43 44 45 45 45 44 45 46 47 49 51 53 55 57 60 63 66 67 69 70 71 72 73 74 75 76
37 33 31 31 32 32 34 34 35 35 37 39 41 42 42 43 43 44 45 46 48 49 49 50 50 50 49 48 46 43 40 38 35 34 33 31 32 34 36 38 39 38 35 32 28 26 24 22 21 22 23 25 27 29 31 33 36 38 40 42 43 44 44 44 43 43 43 44 45 47 48 50 52 55 58 60 62 64 65 67 69 71 71 72 74
36 32 30 31 31 32 34 34 34 35 37 39 40 41 41 42 43 44 45 47 48 50 51 51 51 51 50 49 47 44 40 36 33 32 31 29 29 30 33 35 36 36 34 32 29 26 23 21 18 17 17 19 21 24 27 29 32 34 36 38 39 40 40 40 40 40 40 40 41 42 43 45 47 49 52 55 57 58 60 62 65 67 68 69 70
34 31 30 30 31 31 33 33 33 34 36 38 39 39 40 41 42 44 45 46 48 50 51 51 52 51 50 49 46 43 39 35 32 30 29 27 27 28 30 32 34 34 33 32 30 27 24 21 19 16 15 14 15 17 19 21 24 26 28 30 32 33 33 34 34 34 34 35 36 37 38 40 41 43 46 49 51 52 54 57 59 62 64 66 66
33 30 29 29 30 31 31 32 32 33 35 36 37 38 39 40 41 43 45 46 47 49 49 50 50 50 49 47 45 42 38 34 31 29 27 26 25 26 27 29 31 32 32 31 30 28 25 22 20 18 16 15 14 15 15 16 17 19 20 22 23 24 25 26 26 27 28 29 31 32 33 35 37 39 40 42 44 46 49 51 54 57 59 61 63
30 28 27 28 29 29 30 30 31 33 35 36 36 37 38 39 41 42 44 45 46 47 47 47 47 47 46 45 43 41 38 34 30 28 27 25 24 24 25 27 28 29 30 30 30 29 27 24 21 19 18 17 16 15 15 14 14 14 15 15 16 18 19 20 21 22 23 24 26 28 30 31 32 34 35 36 39 41 44 46 49 51 54 56 58
28 26 26 27 27 28 29 29 30 32 34 35 36 37 37 39 40 41 43 44 45 45 45 44 44 44 43 42 41 39 37 34 30 28 26 25 24 23 24 25 26 27 28 28 28 28 27 26 23 20 18 17 16 16 14 13 12 12 12 13 14 14 15 16 17 18 20 22 23 25 26 28 28 30 31 32 34 37 39 41 43 45 47 49 52
25 24 24 25 26 27 28 29 30 32 34 34 35 36 37 38 39 40 42 43 43 43 43 42 41 41 40 40 39 38 36 34 31 28 26 25 24 23 24 25 25 25 25 26 27 27 26 26 25 22 19 17 15 15 14 13 12 11 11 11 12 12 13 15 16 17 19 20 22 23 24 25 26 27 28 29 31 33 35 37 39 40 42 43 45
23 22 23 24 25 26 27 28 30 32 33 34 34 35 36 37 38 40 41 42 42 42 41 39 38 38 37 36 36 36 34 32 30 28 26 25 25 24 24 24 24 24 23 24 25 25 25 25 25 23 19 16 15 14 14 13 13 12 12 12 12 12 13 15 16 18 19 20 21 22 23 24 24 25 26 28 29 30 31 33 34 36 37 39 41
21 21 21 22 24 25 27 28 30 31 32 33 34 35 35 37 38 39 40 41 41 40 39 37 36 36 34 33 33 33 33 32 31 29 26 25 24 23 23 23 22 22 22 22 23 23 23 23 24 22 17 14 14 13 12 12 13 13 13 13 13 13 14 15 16 17 18 20 21 22 22 22 23 25 26 27 28 29 30 32 33 34 35 37 39
19 20 20 22 24 25 26 28 30 30 31 32 33 34 35 36 37 38 39 39 39 38 37 35 35 34 33 31 29 29 30 31 31 30 29 27 24 23 22 21 21 21 21 20 21 21 21 21 22 20 15 13 13 13 12 12 11 11 11 11 11 11 12 13 14 16 17 18 19 21 22 22 23 24 25 26 27 28 29 30 32 34 35 36 37
18 19 20 22 23 24 26 28 29 29 30 31 32 33 34 35 36 37 38 38 38 37 35 34 33 33 32 30 28 27 27 28 28 29 29 28 27 25 23 22 21 21 20 19 19 19 19 18 18 16 13 12 13 14 14 13 12 11 10 10 9 9 10 11 12 13 15 16 17 18 20 21 22 23 24 25 27 28 29 30 31 33 34 35 35
18 18 20 21 23 24 25 27 28 29 29 30 32 33 34 35 36 36 37 37 37 36 34 32 32 31 31 30 28 26 25 24 25 26 27 27 27 27 26 24 22 21 20 18 17 17 17 16 15 13 11 12 14 16 15 13 11 11 11 10 9 9 9 10 10 11 12 13 14 16 17 19 21 23 24 25 26 27 29 29 30 30 31 31 32
Wind_Direction
271 271 270 269 268 267 266 266 266 266 265 265 264 264 263 264 264 265 265 266 267 267 267 266 266 265 264 263 263 262 263 263 263 263 262 262 261 260 260 259 258 258 258 258 259 259 258 258 257 258 259 259 260 260 260 260 260 260 261 261 260 261 261 261 260 258 258 259 260 259 258 256 255 254 255 256 256 256 257 257 257 258 258 257 257
272 273 273 272 271 269 267 266 265 264 264 265 265 265 265 265 265 266 267 268 269 269 268 266 266 265 264 263 262 261 261 262 261 262 262 261 260 260 259 259 259 259 259 258 259 259 259 259 259 259 259 259 259 260 260 260 259 260 260 260 260 260 260 260 259 258 257 258 259 260 259 258 257 256 255 256 256 257 256 257 257 257 257 257 257
273 274 274 275 274 272 270 269 268 267 267 267 267 268 268 268 268 268 268 268 268 267 267 265 265 264 264 264 264 262 262 262 261 260 260 260 260 260 259 259 258 258 258 259 259 260 260 260 260 260 260 260 259 260 260 260 260 260 260 260 259 259 259 259 258 257 257 257 258 259 259 259 258 257 255 255 255 256 256 257 257 258 258 258 258
274 274 275 277 277 275 273 272 270 269 269 268 268 268 268 268 268 268 268 267 266 265 264 263 263 262 263 264 264 264 264 264 263 262 260 259 259 260 261 262 262 261 261 261 260 261 261 261 261 261 261 261 261 261 261 261 261 261 261 260 260 259 259 259 258 257 256 256 257 258 259 258 258 257 256 255 255 255 255 256 257 258 259 259 258
275 275 277 278 278 277 276 274 273 271 270 269 269 268 268 268 268 268 268 268 267 266 266 265 264 263 262 262 262 263 264 265 265 265 265 263 261 261 261 263 264 265 265 265 264 264 264 264 264 263 262 262 262 262 263 263 263 262 262 261 261 261 260 259 259 258 256 256 255 256 257 258 257 256 256 255 254 254 254 255 256 257 258 259 259
276 276 277 278 278 277 277 276 275 274 273 273 272 271 270 270 269 269 269 269 268 267 267 266 265 264 263 263 263 264 264 264 263 263 265 266 266 265 264 264 265 266 267 267 267 267 267 267 267 267 266 265 264 263 264 264 264 264 263 263 262 262 261 261 260 259 257 256 255 255 256 256 256 256 255 254 253 253 253 253 254 255 256 257 257
277 278 278 278 277 277 277 277 276 276 275 275 274 274 273 273 272 272 272 271 270 270 269 268 267 266 265 265 265 265 265 265 264 263 263 263 264 265 265 265 266 266 267 268 268 268 268 268 268 268 268 267 266 265 264 264 263 263 263 263 263 263 262 262 261 260 259 257 256 255 255 255 255 254 254 253 252 252 253 254 254 255 255 255 256
279 279 279 279 279 278 278 277 277 276 276 275 275 274 274 274 273 273 273 273 273 272 272 271 270 269 269 268 267 267 267 267 267 266 265 264 263 263 264 264 264 265 266 267 268 268 268 268 268 268 268 267 267 266 265 264 263 263 263 262 263 263 262 262 261 261 259 258 257 256 255 254 253 253 253 252 252 253 254 254 253 253 253 254 254
280 280 280 280 280 279 279 279 278 278 278 277 276 276 275 274 274 274 273 273 273 273 272 272 272 271 271 270 270 269 269 268 268 268 267 267 266 265 264 264 264 264 264 265 266 267 268 268 268 268 268 267 267 267 266 265 263 263 263 262 262 262 262 261 260 260 260 258 257 257 255 254 253 253 253 253 253 252 250 249 249 249 250 251 251
278 279 279 279 279 279 279 279 278 278 278 278 277 277 277 276 276 275 275 274 274 274 273 273 272 272 271 271 270 270 270 269 269 269 269 268 268 267 266 265 264 264 264 264 264 265 266 266 266 266 266 266 266 266 265 265 264 263 263 262 262 262 262 261 259 258 258 258 257 256 255 254 253 253 252 252 251 250 248 246 246 246 246 248 250
279 279 279 279 279 279 279 278 278 278 278 277 277 277 277 276 276 276 276 275 275 275 275 274 274 273 273 272 271 271 270 270 270 269 269 269 268 267 267 266 265 265 264 263 263 263 263 263 264 264 264 263 263 262 262 262 263 263 263 262 262 261 261 261 261 258 257 256 256 255 254 253 252 251 251 250 249 249 249 247 244 243 244 246 248
281 281 281 281 281 280 280 280 279 279 279 278 278 277 277 277 277 276 276 276 276 276 275 275 275 275 274 274 273 272 272 271 271 270 270 269 269 268 267 266 265 265 264 264 263 263 262 262 262 261 261 261 261 260 259 258 259 259 260 261 261 261 260 260 261 260 258 256 254 254 254 253 252 250 249 248 247 248 248 247 245 244 244 245 246
284 283 283 283 283 283 283 283 282 282 281 281 280 280 280 279 279 278 278 277 277 277 276 276 276 275 275 275 274 274 273 273 272 272 271 270 270 269 268 267 265 265 264 263 263 263 262 262 261 260 260 259 259 259 258 257 256 256 256 257 258 259 259 259 259 260 260 258 255 254 254 254 252 251 249 247 246 246 246 246 246 245 245 245 245
286 287 287 287 287 287 286 286 285 285 284 284 284 283 283 282 282 281 280 280 279 278 278 277 277 276 276 276 275 275 274 274 274 273 272 271 270 270 269 267 266 265 264 264 263 262 262 261 261 260 260 259 258 258 258 257 255 254 254 254 255 255 256 257 257 258 259 259 257 255 254 254 253 252 250 248 246 245 245 245 245 244 244 244 244
289 289 289 289 289 289 288 288 288 287 287 286 286 286 285 285 284 283 283 282 281 280 280 279 278 277 277 276 276 275 274 274 274 273 273 272 271 270 269 268 267 266 265 264 263 263 262 261 261 260 260 259 258 258 258 257 256 255 254 253 253 253 254 254 255 256 257 258 257 255 253 253 253 252 251 250 248 247 245 244 243 243 242 242 243
290 290 290 290 290 290 289 289 289 288 288 288 288 287 287 286 285 285 284 283 283 282 282 281 280 279 278 278 277 276 275 274 273 273 272 272 272 271 271 270 269 268 266 265 264 264 263 262 261 260 260 259 258 258 258 257 257 256 255 254 253 253 253 253 254 254 255 256 256 255 253 252 252 251 251 250 250 248 247 245 243 243 243 243 244
290 290 290 290 290 290 290 289 289 289 289 289 289 288 288 287 287 286 285 285 284 284 283 282 282 281 280 279 278 278 277 275 274 273 273 273 272 272 271 271 270 269 268 267 265 264 263 262 262 261 260 259 259 258 258 258 257 256 256 255 254 253 253 253 253 254 254 254 255 255 253 251 250 250 249 249 249 248 248 246 244 244 244 244 244
291 291 291 291 291 291 291 291 291 291 291 290 290 290 289 289 288 288 287 287 286 285 284 284 283 282 281 280 280 279 278 277 275 274 273 272 272 272 271 271 271 270 269 268 266 265 263 262 262 261 260 260 259 258 258 258 257 256 256 255 255 254 253 253 253 254 254 253 253 254 253 252 250 249 249 248 247 247 247 247 245 244 243 244 244
292 292 292 292 292 292 292 292 292 292 292 292 291 291 291 290 290 289 289 289 288 287 286 285 284 283 283 282 281 281 280 279 277 276 275 274 273 272 272 272 271 271 270 269 268 267 265 264 262 261 260 259 259 258 257 257 257 256 255 255 254 254 253 253 253 253 253 253 252 252 252 252 251 249 249 248 247 246 246 246 246 244 243 243 244
292 292 292 292 293 293 293 293 294 294 294 294 293 293 293 292 292 292 291 290 289 288 288 287 286 285 285 285 284 284 283 282 280 279 278 277 275 274 273 273 272 271 270 270 269 268 267 265 264 262 261 259 258 257 257 256 256 256 256 254 253 253 253 252 252 252 251 251 251 250 250 251 251 250 249 249 248 247 245 245 245 245 244 243 243
293 293 293 293 294 294 295 295 296 296 296 296 296 296 296 295 295 295 293 292 291 290 289 289 289 289 288 288 288 288 287 286 285 283 281 279 278 276 275 274 273 271 270 270 269 268 267 266 265 263 261 260 258 257 256 256 256 256 255 255 254 252 251 250 250 250 249 249 249 249 249 249 250 251 250 250 249 249 247 246 245 245 245 243 243
294 294 294 295 296 296 297 298 299 299 299 299 299 299 299 299 298 297 296 294 293 291 290 290 290 290 291 291 292 292 292 291 288 286 283 281 279 277 276 274 273 272 271 269 269 268 267 266 265 264 262 260 258 256 255 255 255 255 254 254 254 252 250 249 248 248 248 247 247 247 247 247 247 249 250 250 250 250 249 248 246 246 245 244 243
295 296 296 297 298 299 300 300 300 300 301 301 301 301 301 301 300 298 296 294 293 291 291 290 290 291 292 294 296 297 297 295 293 290 288 285 283 281 278 276 275 273 272 271 269 268 266 265 264 263 262 261 258 256 254 254 253 254 254 253 253 252 251 249 247 247 247 246 246 245 245 246 246 246 248 249 250 249 249 249 248 247 246 246 245
297 297 298 299 300 300 301 301 301 302 303 303 304 304 303 302 300 298 296 293 292 291 290 290 291 292 294 296 299 300 299 298 297 294 292 289 286 284 282 280 278 276 274 273 271 269 267 265 264 262 261 260 259 256 254 252 251 252 252 252 252 251 250 249 248 247 247 246 246 246 245 245 245 245 246 247 247 247 247 248 248 248 247 247 246
298 299 299 300 300 301 302 301 302 303 306 307 308 307 306 304 302 299 295 292 291 290 290 291 292 293 295 297 299 301 301 301 299 296 294 292 290 289 287 285 282 280 277 275 273 270 268 266 264 262 261 259 258 256 254 251 250 249 249 250 250 250 250 249 249 248 247 246 246 246 245 245 245 245 245 245 245 245 246 246 247 248 248 248 247
298 299 300 300 301 301 301 301 303 305 308 310 312 312 311 307 303 300 297 294 293 292 292 293 294 294 296 298 301 303 304 303 301 300 299 299 299 298 295 291 288 284 281 277 274 272 269 267 265 263 261 259 257 256 255 253 250 249 247 247 248 249 249 249 249 249 248 247 247 246 246 245 245 245 244 244 244 244 245 245 245 246 248 248 248
299 300 300 301 301 300 300 301 303 306 309 312 315 317 316 311 306 302 300 297 296 295 295 295 295 296 298 300 302 305 307 306 304 303 304 306 307 306 302 296 291 288 285 281 277 272 269 267 265 263 262 260 258 256 255 254 253 251 249 247 247 247 248 249 249 250 249 248 247 246 246 245 245 244 245 244 244 244 244 244 244 244 245 246 247
300 300 301 301 299 298 299 300 303 306 309 312 316 318 318 316 314 310 306 302 300 298 297 297 298 299 300 301 303 305 308 308 307 307 309 311 311 311 307 301 294 289 286 283 280 276 271 267 265 263 263 262 260 256 254 253 253 253 251 249 247 247 247 247 248 249 249 248 247 246 246 245 245 244 244 245 245 244 243 243 243 243 243 244 245
300 301 301 299 297 296 298 300 302 305 308 312 315 317 318 319 320 320 318 315 311 307 305 303 302 302 303 303 304 305 308 309 310 311 313 315 316 316 314 309 301 293 286 282 279 278 274 269 265 263 262 262 261 257 254 252 253 253 253 251 249 247 246 246 247 247 248 248 247 246 245 245 245 244 244 244 244 244 243 242 242 242 242 243 244
301 302 300 296 295 295 296 298 302 306 308 312 315 316 318 320 322 323 323 323 322 319 317 314 312 310 309 308 307 307 308 310 312 313 315 316 318 320 320 317 310 301 294 287 281 279 276 272 267 262 261 262 260 257 253 252 252 254 255 253 250 248 247 246 246 246 247 246 246 245 244 244 244 244 243 243 243 243 242 241 240 240 241 242 243
302 301 297 294 293 294 295 298 303 306 309 312 314 315 317 320 323 323 323 322 322 321 321 319 318 317 316 314 312 310 309 309 311 312 313 315 317 319 321 320 315 307 300 294 288 283 279 274 268 262 260 260 259 256 253 251 250 252 254 254 251 248 246 245 245 245 246 246 245 244 243 243 243 243 243 242 242 242 241 241 239 239 239 240 241
302 299 294 292 292 293 295 300 303 306 309 312 314 314 314 316 320 322 322 321 321 320 320 320 320 319 318 318 316 314 311 309 308 310 311 312 314 317 320 321 318 311 304 297 293 288 284 277 269 262 259 258 257 253 250 249 249 250 253 254 253 251 248 246 245 245 245 245 244 244 243 242 242 242 242 242 241 241 240 240 239 238 237 238 239
302 297 292 290 291 293 297 301 303 306 309 311 313 313 312 314 316 318 321 322 321 321 321 320 320 320 319 318 318 317 315 312 309 308 309 309 312 316 320 322 321 315 308 301 295 292 288 282 273 263 257 256 255 251 247 246 246 248 251 254 254 253 251 248 246 245 245 244 244 244 243 242 241 241 241 241 241 240 240 239 239 237 235 236 238
302 297 291 288 290 294 298 301 303 306 309 311 313 313 313 314 315 316 318 321 321 321 321 321 320 320 320 319 318 317 317 315 312 310 309 309 312 317 321 324 323 318 311 305 299 294 291 286 277 265 257 254 253 250 246 243 242 245 249 252 253 253 252 250 249 247 246 245 245 244 243 242 241 241 240 240 240 240 239 239 238 237 235 235 236
301 296 290 288 291 296 300 301 303 306 309 312 314 314 313 314 315 317 319 320 321 321 321 321 320 320 319 319 318 316 316 316 315 312 311 310 313 318 322 325 325 320 314 308 302 296 293 290 281 269 259 255 254 250 246 242 239 240 244 247 249 250 251 250 249 248 247 246 245 244 243 242 241 240 239 239 239 239 239 238 237 237 235 235 235
301 294 288 289 293 297 300 301 303 306 309 313 314 315 314 315 316 318 321 321 322 322 322 321 321 320 319 319 318 316 316 316 315 314 313 312 315 320 323 326 327 323 316 311 306 299 294 290 284 275 263 256 254 251 246 240 236 236 240 244 246 248 249 249 248 248 247 246 245 243 242 241 240 239 239 238 238 238 238 237 237 236 235 234 234
299 291 286 289 294 297 299 301 303 306 310 314 315 315 316 317 318 320 321 322 322 323 324 323 323 322 320 320 319 316 315 314 314 314 313 314 317 321 324 327 328 326 319 313 309 303 296 289 283 276 267 258 251 247 242 237 234 235 239 244 247 248 250 250 250 250 248 247 245 244 242 241 240 239 238 238 237 237 237 237 236 236 235 234 233
298 288 283 287 292 295 297 300 303 307 312 315 316 316 317 318 319 320 322 323 323 324 325 325 325 324 322 321 319 317 314 313 313 314 313 314 318 322 325 328 330 327 322 315 310 306 300 292 284 277 270 261 253 246 240 236 235 237 240 244 247 250 251 252 253 253 252 250 248 246 244 242 240 239 238 237 237 236 236 236 235 235 234 234 233
296 286 282 287 291 294 297 299 303 308 313 315 316 316 317 318 319 321 322 323 324 325 326 327 326 326 325 323 321 318 314 312 311 311 310 312 317 322 326 330 331 330 325 319 312 309 306 300 292 282 273 266 259 253 248 245 244 244 246 248 251 253 255 256 256 255 254 252 250 247 244 242 240 238 238 237 236 235 235 234 234 234 234 234 233
293 283 281 286 291 294 297 299 303 309 313 315 315 316 317 318 320 321 323 324 326 327 327 328 328 327 326 325 323 320 315 311 310 309 308 311 317 322 326 332 334 334 330 323 317 313 311 309 304 293 282 273 265 260 257 255 254 253 254 255 256 258 259 259 259 257 254 251 248 246 243 241 239 238 238 237 236 235 234 234 233 233 234 234 234
290 280 278 284 289 293 296 300 304 310 313 314 314 315 317 319 321 322 324 326 327 328 329 329 329 329 329 328 327 323 318 313 312 310 310 313 318 322 326 332 336 337 335 330 323 318 316 315 312 306 296 285 275 268 264 261 260 259 259 259 259 260 260 259 258 256 253 249 246 243 242 240 239 238 238 238 237 236 235 234 233 233 234 234 234
285 276 276 282 288 292 296 301 306 311 313 313 314 315 317 320 321 323 325 327 329 329 330 331 331 331 331 331 330 327 322 317 314 311 310 313 318 321 325 330 335 338 339 337 331 325 319 316 314 309 303 294 285 277 271 266 263 260 259 259 258 258 258 258 256 253 250 247 244 241 240 239 239 239 239 238 237 236 235 235 234 234 234 234 234
279 271 273 280 286 291 296 301 307 310 312 312 314 316 318 320 322 325 327 329 330 331 331 332 332 332 332 333 333 331 326 322 317 313 311 312 315 318 322 326 331 335 338 339 337 333 326 320 314 310 305 298 290 283 277 272 267 264 262 260 259 258 257 255 253 250 247 245 242 241 240 239 239 240 239 239 238 237 236 235 234 234 234 234 234
272 267 271 279 285 291 296 302 307 310 311 312 314 317 319 322 324 326 328 329 330 331 332 333 332 332 333 334 335 335 332 327 321 316 313 312 313 315 318 322 327 331 334 335 336 335 333 327 320 313 307 303 298 294 290 286 282 278 273 269 265 262 259 256 254 251 248 245 243 242 241 240 240 240 239 238 237 236 235 235 234 235 235 234 234
264 263 270 279 286 291 297 302 307 310 311 313 316 318 320 323 325 327 328 329 331 332 333 333 333 332 333 334 336 337 336 332 326 320 316 315 313 314 316 319 323 327 330 332 332 332 332 331 326 319 312 305 299 296 294 293 290 285 282 277 272 268 263 259 256 253 249 247 245 243 242 241 240 239 238 236 235 234 234 233 234 234 235 235 235
257 261 270 279 286 292 297 302 307 309 311 314 317 319 321 323 326 327 328 330 332 333 333 333 333 333 334 334 336 338 339 338 333 327 322 320 320 319 319 320 322 324 326 329 330 329 328 329 328 324 317 310 302 294 290 288 285 279 274 272 269 266 262 258 254 251 249 247 244 242 241 239 238 236 235 234 233 232 232 232 232 233 233 234 234
252 260 271 279 286 291 297 303 307 308 310 314 317 320 322 324 326 327 329 331 332 333 333 333 334 335 334 334 335 337 340 341 341 336 329 325 325 325 325 325 326 326 326 328 330 330 327 328 330 328 321 317 313 303 290 283 278 271 264 258 253 251 250 249 247 247 246 244 242 240 238 236 234 232 230 228 227 227 228 228 229 230 231 231 232
250 261 272 279 286 292 299 304 306 308 310 315 318 320 322 325 326 328 330 331 332 333 333 333 335 336 336 334 334 337 340 343 345 345 341 334 329 328 329 330 331 332 330 329 332 332 330 330 333 333 327 324 325 320 306 293 281 269 261 256 251 246 246 246 246 246 245 243 241 239 236 234 232 229 226 223 223 224 225 225 226 227 228 229 231
252 264 273 280 287 294 301 304 306 308 312 316 319 321 323 325 327 328 330 332 332 333 333 333 335 338 338 336 333 335 340 344 346 348 349 346 341 336 333 331 333 336 336 334 333 334 334 336 338 337 334 333 336 335 328 318 305 288 273 265 258 253 251 249 248 248 247 245 242 239 235 232 229 227 224 222 221 221 223 224 224 225 227 229 230
255 266 274 281 289 296 301 303 305 309 313 316 319 321 324 326 327 329 330 332 332 332 332 333 335 338 340 339 335 333 336 341 345 347 350 352 351 348 344 339 337 338 340 339 336 336 338 340 342 342 343 344 343 339 333 324 315 306 296 285 274 266 262 257 254 252 249 246 244 240 236 231 228 226 224 223 221 221 222 223 224 225 227 228 230
258 267 276 285 292 298 301 303 305 309 314 317 320 322 324 326 328 329 330 331 331 331 331 332 334 337 340 341 339 334 332 334 339 345 349 352 354 355 354 352 348 344 342 341 339 339 340 341 340 337 335 335 336 338 338 330 319 309 302 295 286 280 274 266 259 255 252 246 243 240 237 233 230 226 224 224 224 223 223 224 225 225 226 227 229
Height
5633 5632 5631 5631 5630 5629 5627 5626 5625 5624 5624 5623 5622 5621 5620 5619 5618 5617 5616 5615 5615 5615 5614 5614 5613 5613 5613 5613 5612 5612 5612 5611 5611 5612 5612 5612 5612 5612 5612 5612 5613 5613 5613 5614 5614 5614 5616 5618 5619 5619 5618 5619 5621 5621 5622 5623 5623 5624 5626 5627 5628 5629 5629 5629 5633 5639 5641 5642 5645 5648 5649 5649 5651 5653 5652 5652 5654 5656 5657 5658 5658 5660 5661 5663 5663
5622 5621 5621 5620 5620 5619 5617 5616 5615 5613 5612 5610 5610 5609 5608 5608 5607 5606 5605 5604 5603 5602 5602 5601 5600 5600 5600 5600 5600 5600 5600 5600 5600 5600 5600 5600 5600 5600 5600 5600 5601 5601 5601 5602 5601 5602 5603 5605 5607 5607 5606 5607 5610 5610 5610 5611 5611 5613 5615 5616 5617 5619 5618 5618 5621 5626 5629 5631 5633 5635 5638 5639 5642 5643 5643 5644 5644 5645 5647 5649 5649 5650 5652 5653 5654
5610 5610 5609 5609 5608 5607 5606 5605 5604 5603 5601 5600 5598 5597 5596 5595 5595 5595 5594 5593 5592 5591 5590 5589 5588 5587 5587 5586 5586 5586 5586 5587 5587 5587 5587 5587 5587 5587 5587 5587 5588 5588 5589 5589 5589 5589 5590 5593 5594 5594 5594 5595 5598 5598 5598 5599 5599 5601 5603 5604 5605 5607 5607 5606 5608 5613 5617 5619 5620 5623 5627 5628 5631 5633 5633 5633 5634 5635 5638 5639 5640 5642 5644 5645 5646
5598 5598 5597 5596 5595 5595 5594 5593 5592 5591 5589 5588 5587 5585 5584 5583 5581 5581 5581 5581 5581 5579 5578 5577 5576 5575 5574 5573 5573 5572 5571 5572 5573 5573 5573 5573 5574 5574 5573 5573 5573 5574 5575 5576 5576 5576 5577 5580 5582 5582 5581 5583 5586 5586 5586 5587 5587 5588 5591 5592 5593 5595 5595 5594 5596 5601 5604 5607 5609 5612 5615 5617 5620 5622 5622 5622 5623 5625 5627 5629 5631 5633 5635 5636 5637
5587 5585 5584 5582 5581 5580 5579 5579 5578 5577 5576 5575 5574 5572 5571 5569 5568 5567 5566 5566 5566 5565 5564 5564 5563 5562 5562 5561 5560 5559 5558 5558 5558 5558 5557 5557 5558 5559 5560 5559 5559 5560 5561 5561 5562 5563 5564 5566 5568 5568 5569 5571 5573 5574 5573 5574 5575 5576 5579 5580 5580 5582 5582 5582 5585 5588 5590 5595 5599 5601 5602 5605 5608 5611 5612 5612 5613 5615 5616 5619 5621 5623 5625 5626 5628
5574 5572 5571 5569 5567 5566 5564 5563 5563 5562 5560 5559 5558 5557 5556 5555 5554 5553 5551 5551 5551 5550 5549 5549 5549 5549 5549 5548 5547 5546 5546 5546 5546 5544 5542 5541 5541 5542 5544 5544 5545 5546 5547 5548 5549 5549 5550 5552 5554 5554 5555 5558 5560 5561 5561 5562 5563 5564 5566 5567 5567 5568 5569 5571 5573 5575 5578 5582 5587 5588 5591 5594 5597 5599 5601 5602 5603 5604 5606 5608 5610 5612 5614 5616 5618
5560 5558 5557 5555 5553 5552 5550 5548 5547 5546 5545 5543 5541 5540 5539 5538 5537 5536 5535 5534 5533 5533 5532 5533 5533 5534 5534 5534 5532 5531 5531 5532 5532 5531 5530 5528 5526 5527 5527 5528 5528 5529 5531 5533 5534 5536 5537 5539 5540 5541 5542 5544 5546 5547 5547 5549 5550 5552 5554 5554 5554 5555 5557 5559 5560 5562 5565 5570 5574 5576 5579 5583 5585 5587 5590 5591 5591 5594 5596 5598 5600 5602 5604 5606 5609
5546 5544 5542 5540 5538 5536 5534 5533 5531 5530 5528 5527 5526 5524 5522 5521 5520 5519 5517 5516 5515 5515 5514 5514 5515 5516 5517 5517 5517 5516 5516 5517 5517 5516 5515 5514 5513 5512 5512 5512 5513 5514 5515 5516 5518 5520 5522 5525 5526 5527 5527 5529 5531 5533 5534 5535 5536 5539 5541 5541 5541 5542 5545 5547 5548 5550 5553 5557 5560 5564 5567 5569 5572 5575 5578 5579 5581 5586 5589 5589 5591 5593 5594 5596 5599
5533 5530 5528 5525 5523 5521 5519 5517 5515 5514 5512 5510 5509 5507 5506 5505 5503 5502 5501 5499 5498 5497 5496 5496 5497 5498 5498 5498 5499 5499 5500 5501 5501 5499 5497 5497 5497 5496 5496 5497 5497 5498 5499 5501 5502 5504 5506 5508 5510 5512 5512 5513 5515 5517 5518 5520 5521 5524 5527 5527 5527 5530 5533 5535 5536 5538 5541 5544 5548 5551 5553 5557 5561 5564 5567 5570 5574 5577 5577 5576 5579 5582 5583 5583 5585
5520 5518 5515 5512 5509 5507 5505 5503 5501 5499 5497 5494 5492 5491 5489 5488 5487 5486 5484 5482 5481 5479 5479 5479 5479 5479 5480 5480 5481 5481 5482 5484 5485 5483 5480 5479 5478 5478 5478 5479 5480 5480 5482 5485 5487 5489 5490 5491 5493 5496 5497 5499 5501 5502 5502 5504 5506 5509 5511 5511 5513 5516 5519 5522 5525 5527 5529 5531 5535 5538 5539 5545 5551 5554 5556 5561 5563 5563 5562 5564 5567 5569 5569 5570 5573
5507 5504 5501 5498 5495 5493 5491 5489 5487 5485 5482 5479 5477 5475 5474 5472 5471 5469 5468 5467 5465 5464 5463 5462 5462 5460 5460 5460 5462 5463 5464 5466 5466 5465 5463 5461 5460 5459 5458 5459 5461 5462 5463 5465 5469 5473 5475 5475 5477 5479 5481 5484 5486 5487 5488 5489 5490 5493 5494 5495 5497 5501 5504 5508 5512 5515 5516 5518 5523 5525 5526 5533 5541 5543 5544 5547 5548 5549 5552 5553 5553 5554 5556 5560 5564
5492 5490 5487 5484 5481 5479 5476 5474 5472 5470 5467 5464 5462 5460 5458 5457 5456 5454 5452 5451 5450 5449 5448 5446 5445 5444 5442 5441 5442 5443 5444 5446 5447 5445 5443 5442 5440 5439 5437 5439 5441 5442 5444 5446 5449 5453 5456 5458 5460 5462 5464 5467 5469 5471 5472 5474 5476 5477 5478 5479 5481 5485 5490 5493 5497 5500 5502 5505 5509 5511 5515 5522 5528 5529 5531 5533 5534 5537 5539 5539 5541 5544 5546 5549 5553
5479 5476 5474 5471 5468 5465 5462 5460 5458 5456 5453 5450 5447 5446 5444 5442 5440 5438 5437 5436 5435 5434 5433 5431 5430 5429 5426 5424 5424 5424 5426 5428 5427 5424 5422 5420 5419 5417 5415 5416 5419 5422 5425 5428 5430 5433 5436 5438 5441 5444 5448 5450 5451 5453 5455 5458 5460 5461 5462 5463 5466 5470 5475 5478 5481 5485 5487 5490 5495 5500 5505 5510 5512 5515 5517 5519 5520 5522 5524 5528 5532 5534 5534 5537 5543
5468 5465 5463 5459 5456 5453 5450 5448 5445 5442 5440 5437 5435 5433 5430 5428 5426 5423 5421 5420 5419 5418 5417 5416 5415 5414 5412 5409 5408 5408 5410 5411 5409 5405 5401 5399 5398 5395 5393 5394 5397 5401 5405 5408 5411 5414 5417 5419 5421 5424 5429 5432 5434 5436 5438 5440 5442 5443 5445 5447 5451 5456 5459 5462 5466 5469 5472 5474 5479 5488 5495 5497 5497 5501 5502 5503 5506 5510 5513 5517 5520 5521 5522 5527 5530
5459 5456 5453 5450 5446 5442 5439 5436 5433 5430 5428 5425 5423 5421 5417 5415 5412 5409 5406 5405 5404 5403 5402 5400 5400 5399 5398 5395 5393 5393 5396 5396 5392 5387 5383 5380 5377 5375 5373 5373 5376 5380 5384 5388 5391 5394 5397 5399 5401 5404 5409 5413 5416 5419 5421 5422 5423 5425 5427 5430 5435 5439 5443 5447 5451 5454 5456 5458 5462 5473 5482 5484 5484 5486 5487 5489 5494 5498 5500 5503 5504 5506 5509 5512 5514
5450 5447 5444 5440 5436 5432 5429 5426 5423 5420 5417 5414 5411 5408 5405 5402 5399 5395 5393 5392 5390 5388 5387 5385 5384 5384 5383 5380 5377 5377 5381 5382 5377 5371 5367 5363 5360 5356 5354 5355 5356 5359 5364 5369 5372 5374 5377 5379 5381 5385 5389 5394 5398 5401 5403 5403 5403 5405 5409 5413 5418 5422 5426 5432 5437 5439 5440 5442 5446 5456 5466 5470 5470 5471 5473 5476 5481 5485 5487 5487 5489 5492 5496 5499 5503
5442 5438 5435 5431 5427 5423 5418 5416 5413 5410 5407 5403 5399 5396 5392 5389 5386 5382 5379 5379 5378 5375 5373 5372 5371 5369 5367 5366 5362 5361 5365 5367 5362 5356 5353 5350 5345 5340 5337 5337 5338 5341 5345 5350 5352 5354 5357 5360 5362 5365 5369 5375 5380 5383 5384 5383 5383 5384 5389 5394 5398 5403 5409 5418 5422 5422 5423 5426 5430 5439 5448 5453 5454 5456 5459 5462 5467 5471 5471 5473 5479 5484 5485 5488 5492
5433 5429 5425 5421 5417 5412 5408 5405 5402 5399 5396 5392 5388 5384 5381 5377 5374 5370 5367 5366 5365 5363 5360 5359 5359 5356 5352 5351 5348 5346 5349 5351 5346 5340 5339 5337 5330 5325 5322 5321 5322 5325 5328 5330 5332 5334 5338 5342 5345 5347 5350 5356 5361 5363 5363 5362 5361 5364 5369 5374 5378 5383 5393 5402 5405 5405 5406 5409 5414 5421 5429 5434 5438 5441 5444 5449 5453 5456 5456 5462 5470 5472 5471 5476 5482
5424 5420 5415 5411 5406 5402 5399 5395 5392 5388 5385 5381 5376 5373 5369 5366 5363 5359 5356 5353 5352 5350 5347 5345 5345 5343 5338 5336 5335 5332 5333 5335 5330 5325 5326 5323 5317 5312 5309 5307 5308 5310 5311 5312 5314 5317 5321 5325 5330 5331 5333 5337 5341 5343 5344 5342 5340 5343 5349 5354 5358 5365 5377 5386 5387 5386 5388 5391 5397 5404 5410 5416 5420 5424 5429 5433 5438 5441 5446 5452 5457 5456 5458 5466 5471
5415 5410 5406 5401 5397 5393 5389 5385 5382 5377 5373 5370 5366 5361 5358 5355 5352 5348 5346 5342 5339 5337 5335 5333 5332 5331 5327 5325 5324 5321 5320 5321 5318 5314 5313 5311 5305 5300 5297 5295 5295 5295 5294 5295 5298 5302 5305 5308 5312 5315 5316 5318 5321 5323 5325 5324 5322 5324 5329 5333 5339 5350 5363 5367 5365 5365 5368 5372 5379 5385 5391 5398 5403 5406 5412 5418 5422 5428 5435 5441 5443 5443 5448 5454 5456
5405 5401 5397 5392 5388 5384 5379 5375 5371 5367 5362 5358 5355 5351 5347 5343 5341 5337 5335 5332 5329 5327 5325 5323 5323 5322 5319 5316 5314 5312 5310 5310 5308 5304 5301 5298 5293 5288 5285 5283 5280 5278 5279 5281 5283 5286 5289 5291 5294 5298 5298 5299 5302 5305 5307 5307 5306 5307 5310 5315 5323 5335 5344 5344 5342 5343 5347 5352 5359 5365 5373 5380 5385 5389 5396 5402 5407 5413 5420 5426 5430 5432 5436 5440 5443
5396 5392 5387 5383 5379 5375 5370 5365 5361 5357 5352 5348 5344 5341 5337 5333 5331 5327 5325 5323 5322 5320 5318 5316 5315 5314 5312 5308 5306 5304 5301 5299 5297 5293 5289 5285 5280 5275 5272 5270 5266 5263 5265 5269 5270 5271 5273 5275 5277 5280 5280 5280 5284 5287 5289 5291 5291 5290 5294 5300 5307 5315 5321 5323 5322 5322 5326 5332 5340 5347 5355 5363 5368 5374 5380 5386 5392 5397 5402 5409 5414 5417 5421 5426 5430
5387 5383 5378 5374 5370 5366 5361 5357 5352 5347 5343 5339 5335 5332 5328 5325 5322 5319 5316 5315 5314 5313 5311 5309 5308 5307 5305 5301 5298 5295 5292 5288 5285 5281 5276 5272 5266 5262 5258 5256 5253 5249 5250 5255 5257 5256 5257 5259 5262 5263 5263 5263 5265 5269 5273 5274 5274 5275 5279 5285 5291 5296 5300 5302 5302 5303 5308 5316 5322 5330 5338 5346 5352 5359 5365 5370 5376 5381 5384 5389 5396 5400 5405 5411 5415
5378 5374 5370 5366 5362 5358 5353 5349 5344 5340 5336 5332 5328 5324 5320 5318 5315 5312 5309 5308 5307 5306 5304 5302 5301 5300 5297 5294 5290 5286 5282 5278 5274 5269 5264 5259 5253 5248 5244 5242 5239 5236 5235 5239 5241 5241 5242 5244 5246 5247 5247 5247 5249 5251 5254 5256 5258 5260 5264 5269 5274 5278 5281 5282 5284 5288 5294 5301 5306 5313 5323 5331 5338 5344 5351 5355 5358 5362 5365 5370 5377 5382 5388 5394 5400
5370 5366 5362 5358 5354 5350 5346 5342 5338 5334 5330 5325 5322 5317 5313 5311 5308 5304 5302 5301 5300 5299 5297 5295 5294 5292 5289 5287 5283 5278 5273 5269 5264 5258 5253 5248 5242 5237 5232 5228 5226 5222 5222 5224 5225 5224 5225 5228 5230 5231 5232 5232 5233 5234 5236 5239 5242 5245 5249 5253 5257 5260 5263 5265 5270 5274 5279 5286 5293 5300 5309 5317 5323 5330 5335 5337 5339 5343 5349 5355 5361 5366 5371 5378 5384
5363 5359 5354 5351 5347 5343 5340 5336 5332 5329 5325 5320 5316 5311 5306 5304 5301 5298 5296 5294 5293 5291 5290 5288 5286 5284 5282 5279 5275 5270 5265 5260 5255 5249 5244 5239 5235 5228 5222 5216 5212 5209 5208 5209 5210 5209 5209 5211 5213 5215 5216 5216 5217 5218 5221 5226 5229 5231 5234 5238 5241 5244 5247 5250 5255 5259 5266 5273 5280 5287 5295 5302 5307 5311 5315 5318 5322 5329 5335 5340 5345 5350 5355 5361 5367
5355 5351 5347 5344 5340 5336 5333 5331 5328 5324 5320 5316 5311 5306 5301 5298 5294 5291 5289 5288 5286 5284 5282 5281 5278 5276 5274 5271 5267 5263 5258 5252 5247 5242 5237 5233 5228 5223 5215 5208 5202 5197 5195 5195 5195 5196 5196 5196 5197 5199 5200 5202 5203 5205 5209 5214 5217 5218 5221 5224 5227 5231 5234 5237 5241 5246 5253 5261 5267 5273 5280 5285 5288 5292 5297 5302 5308 5315 5320 5324 5329 5335 5340 5345 5349
5347 5344 5340 5337 5333 5330 5327 5325 5322 5320 5316 5312 5307 5302 5297 5293 5290 5285 5282 5281 5280 5278 5276 5274 5271 5268 5266 5263 5260 5256 5252 5246 5241 5236 5231 5226 5221 5215 5209 5201 5195 5190 5186 5183 5181 5182 5183 5182 5183 5185 5187 5189 5191 5194 5197 5201 5204 5206 5209 5212 5215 5218 5222 5225 5227 5231 5238 5246 5253 5258 5264 5267 5271 5277 5283 5287 5293 5299 5304 5309 5314 5319 5324 5329 5332
5340 5337 5334 5330 5327 5325 5322 5319 5317 5314 5311 5307 5303 5298 5293 5288 5285 5282 5277 5274 5273 5271 5269 5267 5264 5261 5259 5255 5252 5249 5245 5239 5233 5228 5223 5217 5212 5205 5199 5192 5186 5182 5178 5174 5171 5171 5171 5171 5171 5173 5176 5178 5180 5182 5186 5189 5192 5194 5196 5199 5202 5206 5209 5211 5214 5218 5225 5231 5238 5243 5248 5252 5257 5263 5268 5272 5278 5284 5289 5294 5299 5304 5309 5313 5317
5334 5330 5327 5324 5321 5319 5317 5314 5312 5309 5306 5303 5300 5295 5289 5283 5279 5276 5274 5270 5266 5264 5262 5260 5257 5254 5251 5247 5243 5240 5236 5232 5226 5221 5215 5210 5204 5197 5191 5184 5177 5172 5168 5165 5163 5161 5160 5160 5161 5162 5164 5167 5169 5172 5175 5178 5181 5183 5185 5187 5189 5192 5196 5199 5202 5207 5212 5216 5222 5228 5233 5237 5242 5248 5253 5258 5264 5269 5274 5280 5285 5289 5295 5299 5304
5327 5324 5321 5318 5316 5314 5312 5310 5307 5304 5301 5298 5294 5292 5288 5281 5274 5270 5268 5265 5262 5259 5256 5253 5250 5246 5243 5240 5236 5231 5227 5223 5218 5213 5208 5203 5197 5191 5185 5178 5171 5165 5160 5156 5155 5153 5152 5151 5151 5152 5154 5157 5160 5162 5164 5167 5170 5172 5174 5176 5177 5180 5183 5186 5190 5195 5199 5202 5207 5213 5218 5223 5228 5234 5240 5245 5250 5254 5260 5265 5270 5276 5282 5287 5291
5321 5318 5315 5313 5311 5309 5307 5305 5302 5299 5296 5293 5289 5286 5283 5280 5274 5268 5263 5260 5257 5254 5251 5248 5244 5240 5236 5232 5228 5224 5219 5215 5211 5206 5201 5196 5191 5185 5180 5173 5165 5159 5154 5150 5147 5145 5143 5142 5143 5143 5145 5148 5151 5152 5154 5157 5160 5163 5165 5166 5168 5170 5172 5176 5180 5184 5186 5189 5193 5199 5204 5210 5215 5221 5226 5231 5236 5241 5247 5252 5258 5264 5270 5273 5277
5314 5312 5309 5308 5306 5304 5301 5299 5297 5294 5291 5288 5285 5281 5278 5275 5271 5267 5261 5256 5251 5247 5244 5241 5238 5235 5231 5226 5221 5217 5212 5208 5203 5199 5195 5190 5185 5180 5174 5167 5160 5153 5148 5144 5142 5139 5137 5135 5135 5136 5137 5140 5142 5143 5145 5147 5150 5154 5156 5158 5160 5162 5164 5167 5170 5172 5174 5178 5182 5187 5192 5198 5203 5208 5213 5218 5223 5228 5234 5240 5245 5251 5256 5260 5265
5308 5305 5304 5303 5301 5299 5297 5294 5292 5290 5286 5283 5280 5276 5272 5269 5265 5262 5258 5254 5249 5243 5238 5234 5230 5227 5224 5220 5215 5210 5205 5201 5197 5193 5189 5184 5179 5174 5169 5163 5155 5149 5143 5139 5136 5134 5132 5130 5129 5129 5130 5132 5134 5135 5137 5139 5142 5146 5149 5151 5152 5154 5156 5158 5160 5162 5165 5168 5172 5176 5181 5186 5190 5195 5200 5205 5210 5216 5221 5227 5233 5238 5244 5250 5255
5302 5300 5299 5297 5295 5293 5291 5289 5287 5284 5281 5278 5275 5271 5268 5264 5260 5256 5253 5249 5246 5241 5236 5230 5225 5220 5217 5213 5209 5204 5200 5195 5191 5186 5182 5178 5174 5169 5164 5159 5152 5145 5139 5135 5132 5130 5128 5126 5125 5124 5125 5126 5127 5129 5131 5133 5135 5138 5141 5143 5145 5146 5148 5150 5151 5153 5156 5159 5162 5165 5170 5173 5178 5183 5188 5193 5198 5204 5210 5216 5222 5228 5233 5238 5243
5297 5295 5294 5292 5291 5289 5286 5284 5282 5279 5276 5273 5270 5266 5263 5259 5255 5251 5247 5244 5240 5237 5233 5228 5223 5216 5211 5207 5203 5198 5193 5189 5185 5181 5177 5172 5168 5164 5160 5155 5149 5143 5137 5132 5129 5127 5125 5123 5122 5121 5120 5121 5122 5123 5125 5127 5129 5131 5133 5135 5137 5139 5141 5142 5144 5145 5147 5149 5152 5155 5159 5162 5167 5172 5177 5182 5188 5193 5199 5206 5211 5217 5222 5227 5231
5291 5290 5289 5288 5286 5284 5282 5280 5277 5274 5271 5268 5265 5261 5258 5254 5250 5246 5243 5239 5235 5231 5227 5223 5219 5214 5207 5202 5197 5192 5187 5183 5179 5175 5172 5168 5164 5160 5155 5150 5145 5139 5134 5130 5126 5124 5122 5120 5119 5118 5117 5117 5117 5118 5120 5122 5123 5125 5127 5129 5130 5132 5134 5135 5136 5138 5139 5141 5144 5147 5150 5154 5158 5162 5167 5173 5178 5184 5190 5196 5201 5206 5211 5215 5220
5286 5285 5284 5283 5281 5280 5278 5275 5273 5270 5266 5263 5260 5257 5253 5249 5246 5242 5238 5234 5230 5226 5222 5218 5214 5210 5205 5199 5193 5188 5183 5178 5174 5170 5166 5163 5159 5156 5151 5146 5141 5136 5132 5127 5124 5121 5119 5117 5116 5115 5115 5114 5114 5115 5116 5117 5118 5120 5121 5122 5123 5125 5127 5128 5130 5132 5133 5135 5137 5139 5142 5146 5150 5154 5158 5164 5169 5174 5180 5185 5190 5195 5199 5204 5210
5281 5280 5279 5278 5276 5275 5273 5271 5268 5265 5262 5259 5256 5252 5249 5245 5241 5237 5233 5229 5225 5221 5217 5213 5208 5203 5199 5195 5190 5184 5179 5174 5170 5166 5162 5159 5156 5152 5148 5144 5138 5133 5129 5125 5121 5119 5116 5115 5113 5112 5112 5112 5112 5112 5113 5114 5114 5115 5115 5116 5117 5119 5120 5122 5124 5125 5126 5128 5129 5132 5135 5138 5141 5146 5150 5154 5159 5165 5170 5175 5180 5184 5189 5195 5201
5276 5275 5273 5273 5271 5269 5268 5266 5263 5260 5257 5254 5251 5248 5244 5241 5237 5233 5229 5224 5220 5215 5211 5207 5202 5197 5193 5188 5184 5179 5175 5170 5167 5163 5159 5156 5152 5149 5145 5141 5136 5132 5127 5123 5120 5117 5114 5112 5111 5109 5108 5108 5108 5109 5109 5109 5109 5110 5111 5111 5112 5113 5114 5115 5117 5117 5119 5120 5122 5124 5127 5131 5134 5138 5142 5147 5151 5156 5161 5166 5171 5176 5182 5187 5193
5271 5270 5269 5268 5267 5265 5263 5261 5258 5256 5253 5250 5247 5244 5240 5236 5233 5229 5224 5220 5215 5210 5205 5201 5196 5192 5187 5182 5177 5173 5169 5165 5162 5159 5155 5152 5149 5146 5143 5139 5135 5131 5126 5122 5118 5115 5113 5111 5109 5107 5105 5105 5104 5104 5104 5104 5104 5105 5105 5106 5106 5107 5108 5109 5110 5111 5112 5114 5116 5119 5122 5125 5128 5132 5136 5140 5145 5150 5154 5159 5164 5169 5174 5180 5185
5265 5265 5264 5263 5262 5261 5259 5257 5254 5251 5249 5246 5243 5240 5236 5232 5228 5224 5220 5216 5211 5206 5201 5195 5190 5186 5181 5176 5172 5167 5163 5160 5157 5155 5151 5148 5145 5143 5140 5137 5133 5129 5125 5121 5117 5114 5111 5109 5107 5105 5103 5102 5101 5100 5100 5100 5100 5100 5100 5100 5101 5101 5102 5103 5104 5105 5107 5109 5111 5114 5117 5120 5123 5126 5130 5135 5139 5143 5148 5153 5157 5162 5167 5172 5178
5259 5259 5259 5258 5258 5256 5255 5252 5250 5247 5245 5242 5239 5236 5232 5228 5224 5220 5216 5211 5207 5202 5197 5191 5186 5181 5177 5172 5168 5163 5159 5156 5153 5151 5148 5145 5142 5140 5137 5135 5131 5128 5125 5121 5117 5113 5110 5108 5106 5104 5102 5100 5099 5098 5097 5097 5096 5096 5096 5096 5097 5097 5098 5099 5100 5102 5104 5106 5108 5110 5113 5116 5119 5122 5126 5130 5134 5138 5142 5146 5151 5155 5160 5165 5170
5253 5253 5254 5253 5253 5251 5250 5248 5245 5243 5240 5238 5235 5232 5228 5224 5220 5216 5211 5207 5203 5198 5193 5188 5183 5179 5174 5169 5165 5161 5156 5153 5150 5147 5145 5142 5140 5137 5135 5132 5130 5127 5123 5120 5117 5113 5110 5107 5105 5103 5101 5099 5098 5096 5095 5095 5094 5094 5094 5094 5094 5095 5096 5097 5098 5100 5101 5103 5105 5107 5109 5112 5115 5118 5121 5125 5129 5132 5136 5140 5145 5149 5154 5158 5163
5247 5248 5248 5248 5247 5246 5245 5243 5240 5238 5236 5233 5230 5227 5224 5220 5216 5212 5208 5203 5199 5194 5190 5185 5181 5176 5171 5167 5163 5159 5155 5150 5147 5144 5142 5139 5137 5135 5133 5130 5128 5125 5122 5119 5116 5113 5110 5107 5104 5101 5099 5098 5096 5095 5094 5093 5093 5092 5092 5093 5093 5094 5095 5096 5097 5098 5099 5101 5102 5104 5106 5108 5111 5114 5117 5120 5124 5127 5131 5135 5139 5143 5148 5152 5156
5242 5243 5243 5243 5242 5241 5240 5238 5236 5234 5232 5229 5226 5223 5219 5216 5212 5208 5204 5200 5196 5191 5187 5182 5178 5173 5169 5165 5161 5157 5153 5149 5145 5142 5139 5137 5135 5132 5130 5128 5126 5123 5121 5118 5115 5112 5109 5106 5103 5101 5098 5096 5095 5094 5093 5092 5091 5091 5091 5091 5092 5093 5093 5094 5095 5096 5097 5098 5100 5101 5103 5105 5108 5110 5113 5116 5119 5122 5126 5130 5134 5138 5142 5146 5150
5237 5238 5238 5238 5238 5237 5235 5233 5232 5230 5227 5225 5222 5218 5215 5212 5208 5204 5201 5196 5192 5188 5184 5179 5175 5171 5167 5163 5159 5155 5152 5148 5144 5140 5137 5135 5132 5130 5128 5126 5123 5121 5119 5116 5114 5111 5108 5105 5103 5100 5098 5096 5094 5093 5092 5091 5090 5090 5089 5089 5090 5090 5091 5092 5092 5093 5094 5095 5097 5098 5100 5102 5104 5106 5109 5112 5115 5118 5122 5126 5129 5133 5137 5141 5144
5232 5233 5233 5233 5233 5232 5230 5229 5227 5225 5223 5220 5217 5214 5211 5208 5204 5201 5197 5193 5188 5184 5180 5176 5173 5169 5165 5161 5157 5154 5150 5146 5143 5139 5136 5133 5130 5128 5126 5124 5121 5119 5117 5115 5112 5110 5107 5105 5102 5100 5098 5096 5094 5093 5092 5091 5090 5089 5089 5088 5088 5088 5088 5089 5090 5091 5091 5093 5094 5095 5097 5099 5101 5103 5105 5108 5111 5114 5118 5121 5125 5128 5132 5135 5139
5227 5228 5229 5229 5228 5227 5226 5224 5223 5221 5218 5216 5213 5210 5207 5204 5201 5197 5194 5190 5186 5182 5178 5174 5170 5166 5162 5159 5156 5152 5149 5145 5142 5138 5135 5132 5129 5126 5124 5122 5120 5118 5115 5113 5111 5109 5107 5104 5102 5100 5098 5096 5095 5093 5092 5091 5089 5089 5088 5087 5087 5087 5087 5087 5088 5089 5089 5090 5091 5093 5094 5096 5098 5100 5103 5105 5108 5111 5114 5117 5120 5123 5127 5130 5133
5223 5224 5224 5224 5223 5222 5221 5220 5219 5217 5214 5212 5209 5206 5203 5200 5197 5194 5190 5186 5182 5179 5175 5171 5168 5164 5161 5157 5154 5151 5148 5145 5141 5138 5135 5131 5128 5125 5123 5120 5118 5116 5114 5112 5110 5108 5106 5104 5102 5100 5098 5097 5096 5094 5092 5091 5089 5088 5088 5087 5087 5086 5086 5086 5087 5087 5088 5089 5090 5091 5092 5094 5096 5098 5100 5103 5105 5108 5111 5113 5116 5119 5122 5125 5128
5219 5220 5220 5220 5219 5218 5217 5216 5214 5212 5210 5208 5205 5202 5199 5196 5193 5190 5187 5183 5180 5176 5173 5169 5166 5162 5159 5156 5153 5150 5147 5144 5141 5138 5135 5131 5128 5125 5122 5119 5117 5115 5113 5111 5109 5107 5106 5104 5102 5101 5099 5098 5096 5095 5093 5091 5090 5089 5088 5087 5087 5086 5086 5086 5086 5087 5087 5088 5088 5090 5091 5092 5094 5096 5098 5101 5103 5105 5108 5110 5113 5115 5118 5120 5123